User: anonymous   Login
Location: Dürabuch
(48.2640°N, 11.2185°E)
Time: 08:12:56
(UTC+00:00)
Language:

Cosmos 468 Rocket - Orbit

View from above orbital plane
View from above orbital plane
View from above satellite
View from above satellite

Ground track
Ground track

The orbit data is extracted from the following two-line orbital elements,

1 05707U 71114B   24200.84897458  .00000942  00000-0  30816-3 0  9990
2 05707  74.0287 348.3708 0023914 146.0506 214.2185 14.39715050754939
Epoch (UTC): 18 July 2024 20:22:31
Eccentricity: 0.0023914
inclination: 74.0287°
perigee height: 742 km
apogee height: 776 km
right ascension of ascending node: 348.3708°
argument of perigee: 146.0506°
revolutions per day: 14.39715050
mean anomaly at epoch: 214.2185°
orbit number at epoch: 75493

The dashed part of the orbit path shows where the satellite is in the earth's shadow,  

DLR